Погода Петропавловск-Камч.

Погода Петропавловск-Камч. : погода сейчас, прогноз погоды и архив. Всё, что Вы хотите узнать о погоде Петропавловск-Камч.!

Хотите узнать прогноз погоды Петропавловск-Камч.? Тогда Вам сюда: Погода Петропавловск-Камч.

Поиск расширенной информации на нашем сайте:

Другие новости

Новости СМИ2

Главная страница сайта

Новости сайта

03.07.2017

Напоминаем, что на нашем специализированном сайте Метеоцентр.Азия вы можете получить высокодетализированные автоматические прогнозы погоды по пунктам России, СНГ и мира в авиационном формате (включающие направление и скорость ветра, видимость, явления погоды, количество и форму облачности, нижнюю и верхнюю границу облачности).


Погода Петропавловск-Камч. - сегодня

Время (UTC), дата Ветер
(°,м/с) 
Видим.   Явления Облачность Т
(°С)
Тd
(°С)
f(%) Тe
(°С)
Pmin
(гПа)
dP
(гПа)
Po
(мм)
O2
(г/м3)
Тmin Tmax R s Состояние
почвы
21 12.10.18 350 (С) 6-10{10}  20000 м  туман на расстоянии  3/3 600 м 
[Sc]
+5.4 +2.6 82 +3  996.7  -0.9  745  294  +5.1       
09 13.10.18 320 (СЗ) 8-12{18}  20000 м    1/1 600 м 
[Sc]
+6.3 -1.4 58 +3  1003.1  2.6  750  296    +10.6       
12 13.10.18 360 (С) 3{11}  20000 м    1/1 1000 м 
[Sc]
+4.5 -3.1 58 +3  1004.7  1.5  751  298           
15 13.10.18 340 (С) 6{10}  20000 м    1/1 1000 м 
[Sc]
+4.3 -2.2 63 +2  1006.4  1.7  753  299           
18 13.10.18 350 (С) 5{12}  20000 м    ясно 
+4.4 -3.6 56 +2  1008.8  2.3  754  300           
12 14.10.18 330 (СЗ) 4{10}  20000 м    ясно 
+5.5 -1.1 62 +4  1018.5  1.5  762  301           
15 14.10.18 340 (С) 20000 м    ясно 
+3.8 -0.2 75 +1  1018.7  0.2  762  303           
18 14.10.18 010 (С) 20000 м    ясно 
+4.3 -2.7 60 +3  1019.5  0.8  762  303           
21 14.10.18 360 (С) 20000 м    ясно 
+4.9 -4.3 51 +4  1020.2  0.8  763  302  +3.4         
00 15.10.18 340 (С) 20000 м    1/0 верхняя 
[Ci fib]
+9 -1.1 49 +8  1019.8  -0.4  763  298           
03 15.10.18 160 (Ю) 20000 м    8/0 средняя, верхняя 
[Ac lent|Ci fib]
+9.6 -1.2 47 +10  1018.5  -1.2  762  297           
06 15.10.18 140 (ЮВ) 20000 м    6/0 средняя, верхняя 
[Ac trans|Ci fib]
+8.5 +1.7 62 +9  1017.3  -1.2  761  297           
12 15.10.18 010 (С) 20000 м    10/0 верхняя 
[Ci fib]
+7.2 -2.2 51 +6  1017.5  0.1  761  299           
15 15.10.18 010 (С) 20000 м    3/0 верхняя 
[Ci fib]
+7.3 -1.5 54 +6  1017.4  0.1  761  299           
18 15.10.18 тихо ()   20000 м    10/10 600 м 
[Sc]
+3.5 +0.1 78 +4  1017  -0.4  761  303           
00 16.10.18 300 (СЗ) 20000 м    10/10 1000 м 
[Sc]
+7.3 +2.3 71 +8  1016.6  -0.7  760  298           
03 16.10.18 220 (ЮЗ) 20000 м    9/8 1000 м средняя 
[Sc|Ac trans]
+7.7 +3.2 73 +9  1015.8  -0.8  760  297           
06 16.10.18 020 (С) 20000 м  слаб. ливневой дождь  10/10 600 м кучево-дожд. 
[Cb cap]
+7.1 +3.8 80 +6  1016  0.2  760  298           
09 16.10.18 тихо ()   20000 м  {ливн. осадки}  5/3 600 м средняя, верхняя 
[Sc|Ac trans|Ci fib]
+6.1 +3.3 82 +6  1016.4  0.5  760  299    +8.8  0.0     
12 16.10.18 тихо ()   20000 м  {ливн. осадки}  9/8 600 м средняя 
[Sc|Ac trans]
+5.4 +3.8 89 +5  1017.2  0.8  761  300           
15 16.10.18 170 (Ю) 20000 м    9/5 600 м средняя, верхняя 
[Sc|Ac trans|Ci fib]
+4.5 +2.8 89 +5  1017.7  0.4  761  301           
18 16.10.18 340 (С) 20000 м    8/1 600 м средняя, верхняя 
[Sc|Ac trans|Ci fib]
+4.1 +2.8 91 +5  1017.8  0.1  761  302           
00 17.10.18 100 (В) 10 км  туман на расстоянии  9/6 600 м средняя, верхняя 
[Sc|Ac trans|Ci fib]
+8.6 +3.7 71 +8  1017.4  -0.3  761  297           
03 17.10.18 130 (ЮВ) 10 км  туман на расстоянии  10/10 600 м 
[Sc]
+8.3 +4.5 77 +8  1015.9  -1.5  760  296           
09 17.10.18 130 (ЮВ) 5-10{13}  10 км  слаб. ливневой дождь  10/10 300 м кучево-дожд. 
[Cb cap]
+8.1 +6.2 88 +7  1011.6  -2.5  756  295    +9.9     
Время (UTC), дата Ветер
(°,м/с) 
Видим.   Явления Облачность Т
(°С)
Тd
(°С)
f(%) Тe
(°С)
Pmin
(гПа)
dP
(гПа)
Po
(мм)
O2
(г/м3)
Тmin Tmax R s Состояние
почвы

Для получения пояснительной информации подведите курсор к названию столбца.

ПОГОДА Петропавловск-Камч. - архив

Всё, что Вы хотите узнать о погоде Петропавловск-Камч. - удобно и подробно!

Выберите нужную дату (начиная с 1 января 2015* года) и нажмите кнопку "Найти".
Будут отображены архивные сводки погоды по пункту Петропавловск-Камч., начиная с указанной даты.


Отображать данные в формате CSV (для использования в таблицах Excel)


Внимание! Наш архив погоды предназначен исключительно для личного некоммерческого использования в познавательных целях. Если Вам необходимы официальные справки о состоянии погоды (для производственных, юридических, коммерческих и т.п. целей), обращайтесь в органы Росгидромета.

*Примечание: данная дата относится к архиву по метеостанциям СССР (Россия, СНГ, Балтия).
Архив по метеостанциям Зарубежной Европы и Азии (кроме Китая) хранится 10 дней, по другим регионам земного шара (Китай, Африка, Америка, Австралия, Океания) - 1 день.

Петропавловск-Камч. - район местоположения метеостанции


Название, широта, долгота, высота метеостанции:
Петропавловск-Камч. (обсерватория) 53°ш. 158.6°д. 24 м над ур. моря [Российская Федерация]

Дополнительная информация

В oтличие oт бoльшинства пoгoдных сайтoв мы публикуем пoдрoбную метеoинфoрмацию в детальнoм прoфессиoнальнoм фoрмате.

Характеристики температуры и влажнoсти вoздуха измеряются на высoте 2 м в тени вдали oт зданий и деревьев.
Скoрoсть ветра измеряется на высoте 10 м (на урoвне рoста челoвека скoрoсть ветра ниже в 1.5-2 раза). Если метеoстанция нахoдится в гoрoде или в лесу, тo скoрoсть ветра занижена на 2-4 м/с пo сравнению с oткрытым местoм. Скoрoсть ветра над акватoриями крупных рек и oзёр, а также на вершинах хoлмoв на 2-5 м/с выше, чем в oбычных услoвиях.
Атмoсфернoе давление в разных тoчках местнoсти мoжет значительнo oтличаться oт давления на метеoстанции, в зависимoсти oт услoвий рельефа (при пoдъёме на 10 м давление пoнижается примернo на 1 мм рт.ст.).